Location: Asheville, NC
(35.6000°N, 82.5500°W)
Time: 19:43:04
(UTC-04:00)

BEESAT 2 - Pass Details

Date: 12 March 2018
Orbit: 502 x 533 km, 64.9° (Epoch: 23 June)

Event Time Altitude Azimuth Distance (km) Brightness Sun altitude
Rises 06:34:19 0° 338° (NNW) 2,679 ? -15.2°
Reaches altitude 10° 06:36:37 10° 345° (NNW) 1,782 ? -14.8°
Maximum altitude 06:40:24 41° 57° (ENE) 778 ? -14.0°
Drops below altitude 10° 06:44:09 10° 128° (SE) 1,759 ? -13.2°
Sets 06:46:24 0° 136° (SE) 2,639 ? -12.8°
